User: anonymous   Login
Location: Oshawa
(43.9000°N, 78.8670°W)
Time: 05:29:23
(UTC-04:00)
Language:

Thor Agena Rocket - Orbit

View from above orbital plane
View from above orbital plane
View from above satellite
View from above satellite

Ground track
Ground track

The orbit data is extracted from the following two-line orbital elements,

1   733U 64002A   17295.58401016 +.00000023 +00000-0 +26354-4 0  9993
2   733 099.1228 127.5742 0034033 167.4104 192.7936 14.32292014800126
Epoch (UTC): 22 October 2017 14:00:58
Eccentricity: 0.0034033
inclination: 99.1228°
perigee height: 760 km
apogee height: 808 km
right ascension of ascending node: 127.5742°
argument of perigee: 167.4104°
revolutions per day: 14.32292014
mean anomaly at epoch: 192.7936°
orbit number at epoch: 80012

The dashed part of the orbit path shows where the satellite is in the earth's shadow,  

DLR